TimePDT,TemperatureF,Dew PointF,Humidity,Sea Level PressureIn,VisibilityMPH,Wind Direction,Wind SpeedMPH,Gust SpeedMPH,PrecipitationIn,Events,Conditions,WindDirDegrees,DateUTC
12:15 AM,32.0,23.0,69,30.27,10.0,NNE,4.6,-,N/A,,Clear,20,2013-04-17 07:15:00
12:35 AM,32.0,23.0,69,30.27,10.0,Calm,Calm,-,N/A,,Scattered Clouds,0,2013-04-17 07:35:00
12:55 AM,32.0,23.0,69,30.28,10.0,Calm,Calm,-,N/A,,Scattered Clouds,0,2013-04-17 07:55:00
1:15 AM,32.0,24.8,75,30.28,10.0,Calm,Calm,-,N/A,,Partly Cloudy,0,2013-04-17 08:15:00
1:35 AM,32.0,23.0,69,30.28,10.0,Calm,Calm,-,N/A,,Clear,0,2013-04-17 08:35:00
1:55 AM,30.2,23.0,75,30.29,10.0,NNE,3.5,-,N/A,,Scattered Clouds,30,2013-04-17 08:55:00
2:15 AM,30.2,23.0,75,30.29,10.0,Calm,Calm,-,N/A,,Mostly Cloudy,0,2013-04-17 09:15:00
2:35 AM,28.4,23.0,80,30.28,10.0,Calm,Calm,-,N/A,,Scattered Clouds,0,2013-04-17 09:35:00
2:55 AM,28.4,23.0,80,30.28,10.0,Calm,Calm,-,N/A,,Partly Cloudy,0,2013-04-17 09:55:00
3:15 AM,28.4,23.0,80,30.28,10.0,Calm,Calm,-,N/A,,Partly Cloudy,0,2013-04-17 10:15:00
3:35 AM,28.4,23.0,80,30.28,10.0,NNE,3.5,-,N/A,,Clear,20,2013-04-17 10:35:00
3:55 AM,28.4,23.0,80,30.29,10.0,Calm,Calm,-,N/A,,Scattered Clouds,0,2013-04-17 10:55:00
4:15 AM,28.4,23.0,80,30.30,10.0,Calm,Calm,-,N/A,,Mostly Cloudy,0,2013-04-17 11:15:00
4:35 AM,28.4,23.0,80,30.30,10.0,Calm,Calm,-,N/A,,Mostly Cloudy,0,2013-04-17 11:35:00
4:55 AM,26.6,23.0,86,30.30,10.0,Calm,Calm,-,N/A,,Partly Cloudy,0,2013-04-17 11:55:00
5:15 AM,26.6,23.0,86,30.30,10.0,Calm,Calm,-,N/A,,Partly Cloudy,0,2013-04-17 12:15:00
5:35 AM,26.6,23.0,86,30.31,10.0,Calm,Calm,-,N/A,,Scattered Clouds,0,2013-04-17 12:35:00
5:55 AM,26.6,23.0,86,30.32,10.0,Calm,Calm,-,N/A,,Scattered Clouds,0,2013-04-17 12:55:00
6:15 AM,26.6,23.0,86,30.32,10.0,Calm,Calm,-,N/A,,Scattered Clouds,0,2013-04-17 13:15:00
6:35 AM,26.6,23.0,86,30.33,10.0,Calm,Calm,-,N/A,,Partly Cloudy,0,2013-04-17 13:35:00
6:55 AM,26.6,23.0,86,30.34,10.0,Calm,Calm,-,N/A,,Clear,0,2013-04-17 13:55:00
7:15 AM,26.6,23.0,86,30.34,10.0,Calm,Calm,-,N/A,,Clear,0,2013-04-17 14:15:00
7:35 AM,28.4,23.0,80,30.35,10.0,Calm,Calm,-,N/A,,Clear,0,2013-04-17 14:35:00
7:55 AM,30.2,23.0,75,30.36,10.0,Calm,Calm,-,N/A,,Clear,0,2013-04-17 14:55:00
8:15 AM,32.0,23.0,69,30.36,10.0,Calm,Calm,-,N/A,,Clear,0,2013-04-17 15:15:00
8:35 AM,35.6,24.8,65,30.36,10.0,Calm,Calm,-,N/A,,Clear,0,2013-04-17 15:35:00
8:55 AM,37.4,26.6,65,30.37,10.0,SW,3.5,-,N/A,,Clear,220,2013-04-17 15:55:00
9:15 AM,39.2,26.6,61,30.36,10.0,Calm,Calm,-,N/A,,Clear,0,2013-04-17 16:15:00
9:35 AM,41.0,26.6,57,30.35,10.0,SW,4.6,-,N/A,,Clear,230,2013-04-17 16:35:00
9:55 AM,44.6,26.6,49,30.35,10.0,South,3.5,-,N/A,,Clear,180,2013-04-17 16:55:00
10:15 AM,46.4,26.6,46,30.35,10.0,SSW,4.6,-,N/A,,Clear,210,2013-04-17 17:15:00
10:35 AM,48.2,26.6,43,30.34,10.0,SSW,3.5,-,N/A,,Clear,200,2013-04-17 17:35:00
10:55 AM,50.0,24.8,37,30.34,10.0,WSW,8.1,-,N/A,,Clear,250,2013-04-17 17:55:00
11:15 AM,51.8,24.8,35,30.34,10.0,SSW,4.6,-,N/A,,Clear,210,2013-04-17 18:15:00
11:35 AM,50.0,24.8,37,30.34,10.0,South,5.8,-,N/A,,Clear,190,2013-04-17 18:35:00
11:55 AM,51.8,24.8,35,30.34,10.0,WSW,6.9,-,N/A,,Clear,240,2013-04-17 18:55:00
12:15 PM,53.6,24.8,33,30.33,10.0,SSW,5.8,-,N/A,,Clear,200,2013-04-17 19:15:00
12:35 PM,53.6,24.8,33,30.33,10.0,WSW,6.9,-,N/A,,Clear,240,2013-04-17 19:35:00
12:55 PM,55.4,23.0,29,30.32,10.0,SSW,3.5,-,N/A,,Clear,210,2013-04-17 19:55:00
1:35 PM,55.4,21.2,26,30.30,10.0,Calm,Calm,-,N/A,,Clear,0,2013-04-17 20:35:00
1:55 PM,57.2,23.0,27,30.30,10.0,SW,8.1,-,N/A,,Clear,220,2013-04-17 20:55:00
2:15 PM,57.2,21.2,25,30.29,10.0,NNW,6.9,-,N/A,,Clear,340,2013-04-17 21:15:00
2:35 PM,59.0,23.0,25,30.28,10.0,SSW,4.6,-,N/A,,Clear,210,2013-04-17 21:35:00
2:55 PM,59.0,23.0,25,30.28,10.0,South,4.6,-,N/A,,Clear,180,2013-04-17 21:55:00
3:15 PM,59.0,23.0,25,30.27,10.0,SSW,8.1,-,N/A,,Clear,210,2013-04-17 22:15:00
3:35 PM,60.8,23.0,23,30.27,10.0,Calm,Calm,-,N/A,,Clear,0,2013-04-17 22:35:00
3:55 PM,60.8,24.8,25,30.26,10.0,West,4.6,-,N/A,,Clear,270,2013-04-17 22:55:00
4:15 PM,62.6,23.0,22,30.25,10.0,West,5.8,-,N/A,,Clear,270,2013-04-17 23:15:00
4:35 PM,62.6,23.0,22,30.25,10.0,West,5.8,-,N/A,,Clear,270,2013-04-17 23:35:00
4:55 PM,62.6,21.2,20,30.24,10.0,Calm,Calm,-,N/A,,Clear,0,2013-04-17 23:55:00
5:15 PM,62.6,24.8,24,30.25,10.0,West,5.8,-,N/A,,Clear,280,2013-04-18 00:15:00
5:35 PM,62.6,23.0,22,30.24,10.0,Calm,Calm,-,N/A,,Clear,0,2013-04-18 00:35:00
5:55 PM,62.6,24.8,24,30.24,10.0,West,3.5,-,N/A,,Clear,270,2013-04-18 00:55:00
6:15 PM,62.6,26.6,26,30.24,10.0,West,4.6,-,N/A,,Clear,260,2013-04-18 01:15:00
6:35 PM,60.8,28.4,29,30.25,10.0,WNW,6.9,-,N/A,,Clear,300,2013-04-18 01:35:00
7:15 PM,59.0,32.0,36,30.25,10.0,Calm,Calm,-,N/A,,Clear,0,2013-04-18 02:15:00
7:35 PM,55.4,28.4,36,30.26,10.0,NE,4.6,-,N/A,,Clear,50,2013-04-18 02:35:00
7:55 PM,53.6,26.6,35,30.27,10.0,NNE,3.5,-,N/A,,Clear,30,2013-04-18 02:55:00
8:15 PM,50.0,28.4,43,30.27,10.0,North,3.5,-,N/A,,Clear,10,2013-04-18 03:15:00
8:35 PM,48.2,28.4,46,30.28,10.0,North,3.5,-,N/A,,Scattered Clouds,360,2013-04-18 03:35:00
8:55 PM,46.4,28.4,50,30.29,10.0,North,3.5,-,N/A,,Scattered Clouds,10,2013-04-18 03:55:00
9:15 PM,44.6,28.4,53,30.30,10.0,Calm,Calm,-,N/A,,Mostly Cloudy,0,2013-04-18 04:15:00
9:35 PM,44.6,28.4,53,30.32,10.0,Calm,Calm,-,N/A,,Mostly Cloudy,0,2013-04-18 04:35:00
9:55 PM,44.6,28.4,53,30.32,10.0,North,4.6,-,N/A,,Overcast,10,2013-04-18 04:55:00
10:15 PM,41.0,28.4,61,30.32,10.0,NNE,3.5,-,N/A,,Overcast,20,2013-04-18 05:15:00
10:35 PM,41.0,28.4,61,30.33,10.0,Calm,Calm,-,N/A,,Scattered Clouds,0,2013-04-18 05:35:00
10:55 PM,41.0,28.4,61,30.33,10.0,Calm,Calm,-,N/A,,Scattered Clouds,0,2013-04-18 05:55:00
11:15 PM,39.2,28.4,65,30.33,10.0,Calm,Calm,-,N/A,,Mostly Cloudy,0,2013-04-18 06:15:00
11:35 PM,39.2,30.2,70,30.33,10.0,Calm,Calm,-,N/A,,Mostly Cloudy,0,2013-04-18 06:35:00
11:55 PM,37.4,30.2,75,30.34,10.0,Calm,Calm,-,N/A,,Mostly Cloudy,0,2013-04-18 06:55:00